Regional Weather Roundup
Issued by NWS

Home | Current Version | Previous Version | Graphics & Text | Print | Product List | Glossary On
Versions: 1 2 3 4 5 6 7 8 9 10 11 12 13 14 15 16 17 18 19 20 21 22 23 24 25 26 27 28 29 30 31 32 33 34 35 36 37 38 39 40 41 42 43 44 45 46 47 48 49 50
338
ASUS43 KLSX 290757
RWRMO

WEATHER SUMMARY FOR MISSOURI
NATIONAL WEATHER SERVICE SPRINGFIELD MO
300 AM CDT SAT APR 29 2017

NOTE: "FAIR" INDICATES FEW OR NO CLOUDS BELOW 12,000 FEET WITH NO
       SIGNIFICANT WEATHER AND/OR OBSTRUCTIONS TO VISIBILITY.
       CURRENT SKY AND/OR WEATHER CONDITIONS ARE NOT AVAILABLE FOR
       CHILLICOTHE AND FARMINGTON.

MOZ001>031-035>038-043-044-053-054-290900-
...NORTHERN AND WESTERN MISSOURI...

CITY           SKY/WX    TMP DP  RH WIND       PRES   REMARKS
KANSAS CTY INT FOG       44  43  96 NE20      29.89F VSB 1
LEE`S SUMMIT   CLOUDY    45  45 100 N12       29.92R
ST JOSEPH      CLOUDY    45  44  97 NE13      29.93F
CHILLICOTHE      N/A     46  44  93 N10G21    29.93F

$$
MOZ066>068-077>081-088>096-101>105-290900-
...SOUTHWEST MISSOURI...

CITY           SKY/WX    TMP DP  RH WIND       PRES   REMARKS
SPRINGFIELD    TSTM      61  60  97 N13       29.81R
JOPLIN         CLOUDY    61  59  93 N14G21    29.76R

$$
MOZ032>034-039>042-045>050-055>058-069>072-290900-
...CENTRAL MISSOURI...

CITY           SKY/WX    TMP DP  RH WIND       PRES   REMARKS
COLUMBIA       NOT AVBL
JEFFERSON CITY RAIN      60  56  86 CALM      29.92R FOG
ROLLA          RAIN      58  57  97 N26G38    29.72F FOG
SEDALIA        FOG       52  52 100 N10       29.88F VSB 3/4
WHITEMAN AFB   CLOUDY    48  48 100 NE10      29.89R FOG
OSAGE BEACH    TSTM      57  57 100 N7G16     29.85F

$$
MOZ051-052-059>065-290900-
...EAST CENTRAL MISSOURI...

CITY           SKY/WX    TMP DP  RH WIND       PRES   REMARKS
ST LOUIS INTL  TSTM      59  56  89 NE3       29.88F FOG

$$
MOZ072>076-082>087-097>100-106>115-290900-
...SOUTH CENTRAL AND SOUTHEAST MISSOURI...

CITY           SKY/WX    TMP DP  RH WIND       PRES   REMARKS
CAPE GIRARDEAU CLOUDY    66  63  90 E8        29.81S
FARMINGTON     TSTM      59  57  94 NW8G21    29.90R FOG
POPLAR BLUFF   CLOUDY    69  68  96 S5        29.77F
WEST PLAINS    CLOUDY    64  61  90 NE8       29.78F

$$



USA.gov is the U.S. government's official web portal to all federal, state and local government web resources and services.